Location: Unspecified
(0.0000°N, 0.0000°E)
Time: 16:23:21
(UTC+00:00)

Vanguard 2 - Pass Details

Date: 28 November 2019
Orbit: 553 x 2938 km, 32.9° (Epoch: 13 December)

Event Time Altitude Azimuth Distance (km) Brightness Sun altitude
Rises 13:21:58 0° 309° (NW) 3,307 10.8 58.7°
Reaches altitude 10° 13:24:45 10° 312° (NW) 2,148 10.0 58.2°
Maximum altitude 13:29:23 66° 34° (NNE) 631 7.7 57.3°
Drops below altitude 10° 13:33:17 10° 117° (ESE) 1,818 9.5 56.6°
Sets 13:35:28 0° 120° (ESE) 2,743 10.3 56.2°
